Location: Newark
(46.7333°N, 6.6667°E)
Time: 20:17:52
(UTC+00:00)

N. Korean satellite - Pass Details

Date: 01 October 2020
Orbit: 452 x 505 km, 97.2° (Epoch: 28 October)

Event Time Altitude Azimuth Distance (km) Brightness Sun altitude
Rises 04:15:03 0° 27° (NNE) 2,575 10.8 -14.0°
Reaches altitude 10° 04:17:40 10° 47° (NE) 1,677 10.2 -13.6°
Maximum altitude 04:20:12 18° 92° (E) 1,243 9.8 -13.2°
Drops below altitude 10° 04:22:42 10° 137° (SE) 1,644 9.7 -12.7°
Sets 04:25:13 0° 157° (SSE) 2,503 10.4 -12.3°
